Total_Precipitation_Accumulation
0.59 0.53 0.66 0.78 0.72 0.76 1.02 1.06 0.97 0.62 0.54 0.62 0.61 0.60 0.57 0.55 0.53 0.55 0.68 0.71 0.71 0.75 0.78 0.84 0.95 1.03 1.02 1.08 1.16 1.29 1.49 1.63 1.69 1.72 1.86 1.99 2.04 2.06 2.03 2.13 2.20 2.14 2.16 2.18
0.59 0.40 0.47 0.60 0.50 0.54 0.59 0.59 0.64 0.52 0.58 0.61 0.59 0.54 0.53 0.54 0.55 0.59 0.69 0.73 0.75 0.76 0.81 0.86 0.92 1.00 1.00 1.01 1.11 1.22 1.38 1.48 1.56 1.70 1.82 2.00 2.09 2.17 2.18 2.19 2.25 2.25 2.19 2.19
0.96 0.48 0.74 0.90 0.61 0.54 0.55 0.55 0.58 0.66 0.67 0.60 0.58 0.57 0.58 0.58 0.58 0.60 0.62 0.66 0.71 0.79 0.84 0.86 0.88 0.92 0.97 0.98 1.02 1.11 1.26 1.36 1.45 1.61 1.70 1.81 1.89 1.95 2.00 1.97 1.97 2.05 2.10 2.01
1.38 1.01 1.39 0.80 0.49 0.47 0.50 0.56 0.58 0.61 0.61 0.61 0.66 0.66 0.61 0.60 0.62 0.62 0.60 0.60 0.62 0.74 0.80 0.79 0.81 0.88 0.92 0.93 0.95 1.04 1.15 1.25 1.29 1.44 1.58 1.62 1.68 1.73 1.76 1.72 1.75 1.89 1.90 1.77
1.79 1.33 0.81 0.44 0.38 0.53 0.62 0.69 0.61 0.57 0.55 0.54 0.57 0.59 0.63 0.61 0.59 0.62 0.61 0.58 0.61 0.69 0.74 0.75 0.80 0.86 0.85 0.86 0.87 0.95 1.05 1.11 1.13 1.22 1.42 1.46 1.53 1.61 1.60 1.64 1.65 1.67 1.67 1.60
1.92 1.48 0.80 0.45 0.30 0.36 0.54 0.79 0.56 0.50 0.54 0.56 0.58 0.78 0.76 0.68 0.65 0.64 0.59 0.58 0.63 0.68 0.66 0.70 0.77 0.78 0.77 0.78 0.82 0.90 0.95 1.03 1.05 1.08 1.22 1.27 1.32 1.40 1.43 1.46 1.53 1.57 1.58 1.53
1.58 1.27 0.61 0.38 0.31 0.35 0.82 0.97 0.54 0.51 0.57 0.61 0.72 0.84 0.77 0.70 0.68 0.66 0.65 0.64 0.63 0.64 0.67 0.71 0.76 0.77 0.78 0.76 0.78 0.83 0.86 0.91 0.96 1.02 1.11 1.15 1.19 1.24 1.31 1.38 1.44 1.49 1.52 1.47
1.18 1.33 0.74 0.38 0.39 0.68 0.85 0.53 0.47 0.50 0.53 0.58 0.58 0.56 0.58 0.62 0.63 0.62 0.64 0.64 0.63 0.66 0.70 0.72 0.72 0.72 0.71 0.77 0.77 0.78 0.84 0.90 0.94 0.99 1.02 1.05 1.10 1.17 1.19 1.30 1.44 1.45 1.42 1.43
0.88 0.82 0.60 0.48 0.57 0.61 0.50 0.45 0.42 0.45 0.49 0.52 0.54 0.54 0.57 0.59 0.60 0.60 0.62 0.62 0.63 0.67 0.71 0.70 0.71 0.70 0.70 0.74 0.75 0.77 0.81 0.87 0.94 1.00 1.01 1.06 1.10 1.16 1.22 1.32 1.46 1.46 1.39 1.36
0.60 0.48 0.42 0.42 0.42 0.43 0.42 0.43 0.42 0.43 0.48 0.49 0.54 0.54 0.57 0.57 0.59 0.60 0.58 0.58 0.57 0.62 0.68 0.70 0.72 0.72 0.72 0.74 0.76 0.79 0.82 0.83 0.88 0.99 1.06 1.06 1.10 1.16 1.20 1.27 1.43 1.50 1.46 1.41
0.53 0.38 0.34 0.33 0.33 0.38 0.40 0.38 0.37 0.39 0.43 0.46 0.47 0.49 0.52 0.56 0.58 0.59 0.59 0.58 0.56 0.59 0.67 0.72 0.72 0.73 0.75 0.79 0.83 0.85 0.83 0.82 0.85 0.95 1.02 1.06 1.10 1.16 1.21 1.21 1.44 1.64 1.54 1.53
0.53 0.37 0.41 0.36 0.31 0.32 0.36 0.37 0.35 0.37 0.40 0.39 0.41 0.46 0.48 0.51 0.54 0.55 0.57 0.58 0.58 0.58 0.65 0.70 0.73 0.75 0.80 0.87 0.90 0.91 0.89 0.88 0.89 0.96 0.99 1.01 1.06 1.14 1.24 1.26 1.35 1.36 1.41 1.51
0.41 0.34 0.34 0.31 0.26 0.26 0.31 0.33 0.32 0.34 0.39 0.42 0.40 0.42 0.47 0.50 0.51 0.52 0.53 0.56 0.60 0.63 0.65 0.68 0.70 0.73 0.81 0.90 0.93 0.93 0.95 0.96 0.97 0.98 0.99 1.02 1.00 1.04 1.16 1.19 1.22 1.24 1.27 1.34
0.30 0.29 0.30 0.23 0.23 0.23 0.25 0.28 0.28 0.28 0.31 0.36 0.41 0.42 0.46 0.48 0.47 0.49 0.52 0.54 0.55 0.59 0.62 0.64 0.65 0.71 0.79 0.91 0.96 0.97 0.98 1.03 1.06 1.03 1.01 1.03 1.00 0.98 1.04 1.16 1.28 1.32 1.34 1.39
0.25 0.25 0.27 0.22 0.20 0.19 0.21 0.24 0.26 0.27 0.28 0.32 0.37 0.42 0.46 0.49 0.48 0.48 0.50 0.50 0.49 0.52 0.57 0.59 0.62 0.70 0.77 0.86 0.95 1.01 1.06 1.07 1.10 1.10 1.07 1.04 1.03 1.04 1.05 1.09 1.19 1.32 1.41 1.49
0.28 0.24 0.21 0.20 0.20 0.20 0.22 0.25 0.29 0.31 0.32 0.34 0.36 0.40 0.47 0.51 0.51 0.49 0.49 0.50 0.52 0.54 0.57 0.60 0.64 0.71 0.78 0.87 0.96 1.05 1.15 1.23 1.23 1.18 1.15 1.12 1.10 1.12 1.14 1.17 1.20 1.26 1.35 1.45
0.35 0.30 0.26 0.25 0.23 0.23 0.25 0.30 0.34 0.35 0.35 0.36 0.39 0.41 0.44 0.47 0.48 0.47 0.49 0.50 0.54 0.57 0.58 0.61 0.69 0.73 0.78 0.87 0.99 1.11 1.19 1.24 1.27 1.22 1.19 1.19 1.21 1.22 1.23 1.26 1.29 1.27 1.28 1.38
0.34 0.34 0.33 0.33 0.32 0.29 0.27 0.27 0.30 0.33 0.36 0.40 0.40 0.41 0.43 0.47 0.53 0.54 0.54 0.52 0.50 0.50 0.53 0.60 0.71 0.77 0.79 0.88 1.00 1.10 1.18 1.20 1.16 1.18 1.21 1.26 1.31 1.30 1.31 1.31 1.29 1.30 1.32 1.37
0.26 0.28 0.27 0.27 0.28 0.29 0.29 0.30 0.31 0.32 0.34 0.37 0.39 0.41 0.45 0.51 0.56 0.60 0.57 0.54 0.52 0.54 0.60 0.65 0.75 0.75 0.81 0.94 1.06 1.11 1.17 1.19 1.18 1.18 1.22 1.31 1.31 1.24 1.27 1.29 1.32 1.32 1.31 1.33
0.24 0.26 0.26 0.25 0.26 0.28 0.30 0.30 0.30 0.30 0.32 0.35 0.37 0.38 0.41 0.48 0.55 0.59 0.57 0.56 0.61 0.68 0.69 0.74 0.73 0.73 0.82 0.97 1.12 1.13 1.15 1.16 1.18 1.21 1.24 1.25 1.26 1.26 1.26 1.26 1.32 1.38 1.36 1.34
0.26 0.26 0.27 0.27 0.27 0.27 0.29 0.31 0.32 0.33 0.35 0.38 0.42 0.46 0.48 0.52 0.56 0.59 0.59 0.59 0.61 0.65 0.68 0.71 0.73 0.81 0.94 1.09 1.13 1.10 1.11 1.14 1.18 1.25 1.30 1.29 1.30 1.28 1.27 1.27 1.32 1.37 1.37 1.35
0.30 0.31 0.31 0.31 0.31 0.30 0.31 0.33 0.35 0.36 0.37 0.40 0.44 0.48 0.51 0.54 0.57 0.57 0.59 0.66 0.71 0.76 0.71 0.67 0.76 0.95 1.12 1.13 1.04 1.04 1.07 1.11 1.19 1.27 1.33 1.32 1.32 1.32 1.28 1.28 1.34 1.34 1.33 1.32
0.35 0.36 0.38 0.39 0.42 0.42 0.39 0.39 0.41 0.42 0.45 0.47 0.50 0.54 0.56 0.59 0.62 0.64 0.66 0.66 0.70 0.75 0.72 0.73 0.84 1.00 1.08 1.01 0.96 0.98 1.02 1.08 1.16 1.27 1.33 1.36 1.38 1.36 1.34 1.33 1.35 1.37 1.37 1.34
0.37 0.39 0.42 0.45 0.45 0.42 0.42 0.43 0.45 0.48 0.51 0.53 0.57 0.60 0.61 0.61 0.59 0.61 0.67 0.69 0.72 0.74 0.73 0.79 0.87 0.96 0.98 0.91 0.89 0.93 1.00 1.08 1.18 1.28 1.34 1.37 1.38 1.37 1.38 1.41 1.45 1.42 1.36 1.31
0.41 0.42 0.43 0.44 0.46 0.48 0.48 0.45 0.43 0.44 0.46 0.50 0.53 0.55 0.57 0.63 0.71 0.70 0.66 0.66 0.69 0.72 0.71 0.76 0.83 0.88 0.87 0.86 0.88 0.95 1.04 1.15 1.32 1.45 1.47 1.43 1.38 1.37 1.37 1.42 1.48 1.45 1.38 1.33
0.48 0.49 0.51 0.53 0.55 0.56 0.55 0.52 0.51 0.51 0.52 0.51 0.50 0.52 0.55 0.61 0.68 0.71 0.69 0.67 0.68 0.72 0.74 0.77 0.81 0.84 0.84 0.86 0.91 0.98 1.05 1.15 1.29 1.38 1.36 1.35 1.34 1.36 1.37 1.40 1.40 1.40 1.37 1.34
0.52 0.52 0.51 0.52 0.54 0.56 0.60 0.63 0.64 0.64 0.65 0.65 0.63 0.58 0.60 0.64 0.68 0.69 0.66 0.66 0.68 0.70 0.74 0.80 0.83 0.83 0.85 0.89 0.96 1.01 1.05 1.10 1.24 1.37 1.37 1.35 1.36 1.38 1.36 1.36 1.37 1.38 1.37 1.35